Weather in Marsa Alam

Egypt     25°04′19″N   34°53′10″E
temp.,
°C
wind,
m/s
gust,
m/s
humid.,
%
clouds,
%
prec.,
mm/h
press.,
hPa
HPBL,
m
24 january, mon
mon2423:00+17wnw33510 0.0 1019421
02:00+17nw56396 0.0 1018539
05:00+16nw67415 0.0 1019526
08:00+17nw66415 0.0 1021545
11:00+18nnw55475 0.0 1021879
14:00+18nne654482 0.0 1019710
17:00+18n555066 0.0 1019916
20:00+18nnw44545 0.0 1020794
25 january, tue
tue2523:00+17nw44559 0.0 1020662
02:00+17nw5656100 0.0 1019603
05:00+16nw675972 0.0 1019667
08:00+17nw55590 0.0 1020706
11:00+18nnw55550 0.0 10201016
14:00+18nne65490 0.0 1018659
17:00+18n56460 0.0 1018746
20:00+18nnw56450 0.0 1019883
26 january, wed
wed2623:00+17wnw66340 0.0 1019489
02:00+16nw66320 0.0 1018526
05:00+15wnw66350 0.0 1018411
08:00+15wnw67320 0.0 1020526
11:00+18nw78270 0.0 10201343
14:00+20nw79270 0.0 10171674
17:00+19nw1011320 0.0 10181606
20:00+17nw1112400 0.0 10211299
27 january, thu
thu2723:00+14nw1113410 0.0 1022862
02:00+13nw911522 0.0 1022955
05:00+12nw89522 0.0 1023781
08:00+12nw68530 0.0 1025841
11:00+14nnw77524 0.0 10251322
14:00+15n884865 0.0 10231179
17:00+16n88520 0.0 10231168
20:00+16nnw67510 0.0 10241166
28 january, fri
fri2823:00+15wnw67489 0.0 1023804
02:00+14nw6846100 0.0 1023841
05:00+15nw8105797 0.0 1023901
08:00+15nw9955100 0.0 1024746
11:00+17nnw996171 0.0 10241253
14:00+18nnw101055100 0.0 10211591
17:00+18nnw910555 0.0 10211491
20:00+17nnw910583 0.0 10221097